Location: Caltech
(34.1382°N, 118.1253°W)
Time: 20:40:21
(UTC-07:00)

SL-08 R/B - Visible Passes

Search period start: 31 May 2016 00:00
Search period end: 10 June 2016 00:00
Orbit: 676 x 739 km, 98.2° (Epoch: 31 May)

Date Brightness Start Highest point End Pass type
(mag) Time Alt. Az. Time Alt. Az. Time Alt. Az.
31 May 3.6 02:42:10 65° ENE 02:42:10 65° ENE 02:47:01 10° N visible
31 May 5.5 04:21:09 10° W 04:21:09 10° W 04:21:18 10° W visible
01 Jun 5.6 01:48:00 17° E 01:49:02 18° ENE 01:52:21 10° NNE visible
01 Jun 4.0 03:27:00 40° W 03:27:00 40° W 03:31:08 10° NNW visible
02 Jun 3.9 02:32:50 51° E 02:33:03 52° ENE 02:37:49 10° N visible
02 Jun 5.3 04:11:49 13° W 04:11:49 13° W 04:13:36 10° WNW visible
03 Jun 5.8 01:38:40 13° E 01:40:01 15° ENE 01:42:43 10° NNE visible
03 Jun 3.6 03:17:40 51° W 03:17:40 51° W 03:22:09 10° NNW visible
04 Jun 4.3 02:23:30 40° E 02:23:57 41° ENE 02:28:35 10° N visible
04 Jun 5.0 04:02:30 17° W 04:02:30 17° W 04:05:09 10° NW visible
05 Jun 6.0 01:29:22 10° E 01:31:00 12° ENE 01:32:48 10° NE visible
05 Jun 3.3 03:08:21 65° W 03:08:21 65° W 03:13:06 10° NNW visible
06 Jun 4.7 02:14:11 32° E 02:14:53 33° ENE 02:19:17 10° N visible
06 Jun 4.8 03:53:11 22° W 03:53:11 22° W 03:56:30 10° NW visible
07 Jun 3.2 02:59:02 83° WSW 02:59:03 83° WSW 03:04:01 10° NNW visible
08 Jun 5.0 02:04:54 25° E 02:05:49 27° ENE 02:09:57 10° NNE visible
08 Jun 4.5 03:43:53 27° W 03:43:53 27° W 03:47:43 10° NW visible
09 Jun 3.3 02:49:45 78° ESE 02:49:56 80° ENE 02:54:54 10° N visible
